Find Gonets-M No. 24L

NORAD ID: 44905 Int'l Des: 2019-096 Owner: GONETS Country: RU operational
LEOCIRCULARPOLAR

現在のビュー

3D地球を読み込み中...

Gonets-M No. 24Lについて

説明を読み込み中...

次回通過

Passes for default location (London). Set your location on the main map for personalized predictions.

高度履歴

Loading altitude history...

軌道要素

1 44905U 19096A 26146.55513601 -.00000007 00000-0 -11870-3 0 9991
2 44905 82.5213 98.0502 0012578 195.7254 164.3437 12.42869033290990
Epoch: May 26, 2026 • Age: 6 hours

現在のステータス

高度 1518.3 km
速度 7.10 km/s
衛星直下点 -52.08°S, 78.64°W
打ち上げ日 Dec 26, 2019
運用期間 6.4 years
タイプ other

技術仕様

分類 Payload
質量 225.00 kg
乾燥質量 225.00 kg
総質量 225.00 kg
長さ 1.60 m
直径 0.80 m
スパン 7.00 m
形状 Cyl + Ant
製造者 RESH
バスタイプ Strela-3M
フェーズステータス In Orbit
所有者/国 GONETS/RU

Most Searched